STARLINK-34146 (64098 NORAD) Tracking and Keplerian Element Data

This shows tracking and keplerian element data for the satellite.

Feedback or suggestion? Click here.




ElementValue
Catalog64098
NameSTARLINK-34146
Epoch Orbit3365
Epoch Day353.82490125
Epoch Year2025
RAAN37.8175
Inclination53.159
Eccentricity0.0001213
Argument of Perigee68.2331
Mean Anonmoly291.8799
Mean Motion15.30196373
Decay Rate0.00012634
L11 64098U 25110C 25353.82490125 .00012634 00000+0 43802-3 0 9990
L22 64098 53.1590 37.8175 0001213 68.2331 291.8799 15.30196373 33653



Live tracking and technical data element details for STARLINK-34146 (NORAD 64098). STARLINK-34146 can be tracked NOW for your location showing map with azimuth and elevation plus other details from your city location.







IsCatalogInMostPopularTable: catalog: 64098, numindb: 3
Update: records affected: 1



GetName: 64098 STARLINK-34146

Hit Count: updated at: Mon, 09 Feb 2026 09:29:20 GMT